Left ArrowRight Arrow

Hourly Observations for June 16, 2024

Temp ( °F °C ) Dew Point ( °F °C ) Humidity (%) Winds ( mph kmh ) Pressure ( in mb ) Visibility ( mi km ) Precip ( " mm )
12:53 am 00:53 Clear 80 26.7 74 23.3 82 82 WSW 3 6 30.00 1016 10 16 0.00 0.00
1:53 am 01:53 Clear 77 25 73 22.8 88 88 Calm 29.99 1016 10 16 0.00 0.00
2:53 am 02:53 Clear 78 25.6 74 23.3 87 87 Calm 29.99 1016 10 16 0.00 0.00
3:53 am 03:53 Clear 76 24.4 74 23.3 94 94 ESE 5 7 30.01 1016 10 16 0.00 0.00
4:53 am 04:53 Clear 76 24.4 73 22.8 91 91 Calm 30.01 1016 10 16 0.00 0.00
5:53 am 05:53 Sunny 75 23.9 73 22.8 94 94 Calm 30.03 1017 8 13 0.00 0.00
6:53 am 06:53 Sunny 78 25.6 75 23.9 90 90 Calm 30.04 1017 10 16 0.00 0.00
7:53 am 07:53 Sunny 82 27.8 76 24.4 82 82 S 5 7 30.06 1018 10 16 0.00 0.00
8:53 am 08:53 Sunny 84 28.9 75 23.9 74 74 S 8 13 30.08 1019 10 16 0.00 0.00
9:53 am 09:53 Partly Cloudy 88 31.1 73 22.8 61 61 S 7 11 30.07 1018 10 16 0.00 0.00
10:53 am 10:53 Partly Cloudy 90 32.2 73 22.8 58 58 SE 8 13 30.06 1018 10 16 0.00 0.00
11:53 am 11:53 Mostly Sunny 92 33.3 73 22.8 54 54 ESE 8 13 30.05 1018 10 16 0.00 0.00
12:53 pm 12:53 Partly Cloudy 92 33.3 72 22.2 52 52 VRB 7 11 30.03 1017 10 16 0.00 0.00
1:53 pm 13:53 Mostly Sunny 92 33.3 71 21.7 51 51 E 8 13 30.01 1016 10 16 0.00 0.00
2:14 pm 14:14 Mostly Cloudy with Nearby Thunderstorms 91 32.8 72 22.2 54 54 SE 16 26 30.02 1016 10 16 0.00 0.00
2:37 pm 14:37 Cloudy with Strong Thunderstorms 77 25 73 22.8 88 88 SE 22 35 30.06 1018 1 1 0.18 4.57
2:44 pm 14:44 Cloudy with Strong Thunderstorms 75 23.9 72 22.2 90 90 SSE 26 43 30.06 1018 0 0 0.50 12.70
2:53 pm 14:53 Cloudy with Strong Thunderstorms 75 23.9 73 22.8 94 94 S 16 26 30.07 1018 1 1 0.00 0.00
2:57 pm 14:57 Cloudy with Strong Thunderstorms 75 23.9 73 22.8 94 94 SW 10 17 30.06 1018 1 2 0.01 0.25
3:11 pm 15:11 Cloudy with Thunderstorms 77 25 73 22.8 88 88 S 7 11 30.05 1017 3 5 0.01 0.25
3:27 pm 15:27 Partly Cloudy 78 25.6 74 23.3 87 87 S 6 9 30.03 1017 10 16 0.01 0.25
3:53 pm 15:53 Sunny 79 26.1 75 23.9 88 88 SSE 7 11 30.03 1017 10 16 0.01 0.25
4:53 pm 16:53 Mostly Sunny 80 26.7 76 24.4 87 87 WSW 6 9 30.04 1017 10 16 0.00 0.00
5:53 pm 17:53 Mostly Sunny 81 27.2 75 23.9 82 82 Calm 30.05 1018 10 16 0.00 0.00
6:53 pm 18:53 Sunny 79 26.1 75 23.9 88 88 W 7 11 30.06 1018 10 16 0.00 0.00
7:53 pm 19:53 Mostly Clear 78 25.6 73 22.8 85 85 SW 3 6 30.06 1018 10 16 0.00 0.00
8:53 pm 20:53 Mostly Clear 78 25.6 75 23.9 90 90 E 3 6 30.06 1018 10 16 0.01 0.13
9:53 pm 21:53 Mostly Clear 78 25.6 73 22.8 85 85 W 3 6 30.06 1018 10 16 0.00 0.00
10:53 pm 22:53 Cloudy with Heavy Rain 75 23.9 70 21.1 84 84 SE 18 30 30.12 1020 3 5 0.08 2.03
10:58 pm 22:58 Cloudy with Heavy Rain 74 23.3 71 21.7 91 91 SE 15 24 30.14 1021 2 3 0.12 3.05
11:23 pm 23:23 Cloudy with Nearby Thunderstorms 73 22.8 71 21.7 94 94 S 7 11 30.12 1020 3 5 0.00 0.00
11:32 pm 23:32 Cloudy with Rain 73 22.8 71 21.7 94 94 E 3 6 30.11 1020 7 11 0.00 0.00
11:53 pm 23:53 Partly Cloudy with Light Rain 73 22.8 71 21.7 94 94 NE 3 6 30.09 1019 10 16 0.00 0.00

Powered by Vaisala Xweather